Weather History for KIRS - January, 2013

Change the Weather History Date:

Saturday, January 12, 2013

  Actual Average (KAZO) Record (KAZO)
Temperature  
Mean Temperature 50 °F 24 °F  
Max Temperature 57 °F 31 °F - ()
Min Temperature 41 °F 18 °F - ()
Degree Days  
Heating Degree Days 16 41  
Month to date heating degree days 484  
Since 1 July heating degree days 2935  
Cooling Degree Days 0 0  
Month to date cooling degree days 0  
Year to date cooling degree days 0  
Moisture  
Dew Point 45 °F    
Average Humidity 85    
Maximum Humidity 93    
Minimum Humidity 72    
Precipitation  
Precipitation 0.00 in 0.05 in - ()
Month to date precipitation 0.71  
Year to date precipitation 0.71  
Sea Level Pressure  
Sea Level Pressure 29.87 in    
Wind  
Wind Speed 9 mph (SW)    
Max Wind Speed 14 mph    
Max Gust Speed 22 mph    
Visibility 10 miles    
Events Rain    
T = Trace of Precipitation, MM = Missing Value Source: NWS Daily Summary

Daily Weather History Graph

Daily Weather History Graph

Search for Another Location

Airport or City:

Trip Planner

Search our weather history database for the weather conditions in past years. The results will help you decide how hot, cold, wet, or windy it might be!

Date:

Astronomy

Jan. 12, 2013 Rise Set
Actual Time 8:07 AM EST 5:32 PM EST
Civil Twilight 7:36 AM EST 6:03 PM EST
Nautical Twilight 7:02 AM EST 6:38 PM EST
Astronomical Twilight 6:28 AM EST 7:11 PM EST
Moon 8:24 AM EST (1/12) 7:02 PM EST (1/12)
Length of Visible Light 10h 26m
Length of Day
9h 25m
New Moon, 1% of the Moon is Illuminated
Jan 12
New Moon
Jan 18
First Quarter
Jan 26
Full
Feb 3
Last Quarter
Feb 10
New

Hourly Weather History & Observations

Time (EST) Temp. Windchill Dew Point Humidity Pressure Visibility Wind Dir Wind Speed Gust Speed Precip Events Conditions
12:15 AM 48.2 °F - 44.6 °F 87% 29.81 in 10.0 mi South 9.2 mph - N/A   Clear
12:35 AM 48.2 °F - 44.6 °F 87% 29.80 in 10.0 mi South 11.5 mph - N/A   Clear
12:55 AM 48.2 °F - 44.6 °F 87% 29.81 in 10.0 mi SSW 10.4 mph - N/A   Clear
1:14 AM 48.2 °F - 46.4 °F 93% 29.80 in 10.0 mi SSW 12.7 mph 16.1 mph N/A   Clear
1:35 AM 48.2 °F - 46.4 °F 93% 29.81 in 10.0 mi SSW 11.5 mph - N/A   Clear
1:55 AM 48.2 °F - 44.6 °F 87% 29.82 in 10.0 mi SSW 10.4 mph - N/A   Clear
2:14 AM 48.2 °F - 44.6 °F 87% 29.83 in 10.0 mi SW 10.4 mph - N/A   Clear
2:35 AM 48.2 °F - 44.6 °F 87% 29.83 in 10.0 mi SSW 10.4 mph - N/A   Clear
2:55 AM 48.2 °F - 44.6 °F 87% 29.83 in 10.0 mi SSW 12.7 mph - N/A   Clear
3:15 AM 48.2 °F - 44.6 °F 87% 29.83 in 10.0 mi SSW 11.5 mph - N/A   Clear
3:34 AM 48.2 °F - 44.6 °F 87% 29.83 in 10.0 mi SSW 11.5 mph - N/A   Clear
3:55 AM 46.4 °F 41.5 °F 44.6 °F 93% 29.83 in 10.0 mi SSW 10.4 mph - N/A   Clear
4:15 AM 46.4 °F 41.9 °F 44.6 °F 93% 29.82 in 10.0 mi SSW 9.2 mph - N/A   Clear
4:34 AM 46.4 °F 41.9 °F 44.6 °F 93% 29.83 in 10.0 mi SW 9.2 mph - N/A   Clear
4:55 AM 46.4 °F 41.9 °F 44.6 °F 93% 29.81 in 10.0 mi SSW 9.2 mph - N/A   Clear
5:15 AM 46.4 °F 41.9 °F 44.6 °F 93% 29.82 in 10.0 mi SSW 9.2 mph - N/A   Clear
5:34 AM 46.4 °F 42.9 °F 42.8 °F 87% 29.82 in 10.0 mi SSW 6.9 mph - N/A   Clear
5:55 AM 46.4 °F 42.4 °F 42.8 °F 87% 29.82 in 10.0 mi SSW 8.1 mph - N/A   Clear
6:15 AM 46.4 °F 41.9 °F 42.8 °F 87% 29.83 in 10.0 mi SSW 9.2 mph - N/A   Clear
6:35 AM 46.4 °F 41.9 °F 42.8 °F 87% 29.83 in 10.0 mi SSW 9.2 mph - N/A   Clear
6:55 AM 46.4 °F 42.4 °F 44.6 °F 93% 29.83 in 10.0 mi SSW 8.1 mph - N/A   Clear
7:15 AM 46.4 °F 41.9 °F 44.6 °F 93% 29.85 in 10.0 mi SSW 9.2 mph - N/A   Clear
7:35 AM 46.4 °F 41.1 °F 44.6 °F 93% 29.87 in 10.0 mi SW 11.5 mph - N/A   Clear
7:55 AM 46.4 °F 41.9 °F 44.6 °F 93% 29.87 in 10.0 mi SSW 9.2 mph - N/A   Clear
8:15 AM 46.4 °F 42.4 °F 44.6 °F 93% 29.88 in 10.0 mi SW 8.1 mph - N/A   Clear
8:35 AM 46.4 °F 42.4 °F 44.6 °F 93% 29.89 in 10.0 mi SSW 8.1 mph - N/A   Clear
8:55 AM 48.2 °F - 44.6 °F 87% 29.89 in 10.0 mi SSW 9.2 mph - N/A   Clear
9:15 AM 46.4 °F 41.5 °F 44.6 °F 93% 29.91 in 10.0 mi SW 10.4 mph - N/A   Clear
9:34 AM 50.0 °F - 46.4 °F 87% 29.91 in 10.0 mi SW 13.8 mph 18.4 mph N/A   Clear
9:55 AM 51.8 °F - 46.4 °F 82% 29.90 in 10.0 mi SW 11.5 mph 17.3 mph N/A   Clear
10:15 AM 51.8 °F - 46.4 °F 82% 29.91 in 10.0 mi SW 12.7 mph - N/A   Clear
10:34 AM 51.8 °F - 48.2 °F 88% 29.91 in 10.0 mi SW 12.7 mph - N/A   Clear
10:55 AM 53.6 °F - 48.2 °F 82% 29.91 in 10.0 mi SW 10.4 mph - N/A   Clear
11:14 AM 53.6 °F - 48.2 °F 82% 29.91 in 10.0 mi SW 12.7 mph 19.6 mph N/A   Clear
11:35 AM 55.4 °F - 48.2 °F 77% 29.91 in 10.0 mi SW 13.8 mph 19.6 mph N/A   Clear
11:55 AM 55.4 °F - 48.2 °F 77% 29.91 in 10.0 mi SW 12.7 mph 21.9 mph N/A   Clear
12:14 PM 55.4 °F - 48.2 °F 77% 29.90 in 10.0 mi WSW 10.4 mph - N/A   Clear
12:35 PM 55.4 °F - 48.2 °F 77% 29.90 in 10.0 mi SW 11.5 mph - N/A   Clear
12:55 PM 55.4 °F - 48.2 °F 77% 29.90 in 10.0 mi WSW 11.5 mph - N/A   Clear
1:14 PM 55.4 °F - 48.2 °F 77% 29.91 in 10.0 mi SW 13.8 mph - N/A   Clear
1:35 PM 55.4 °F - 48.2 °F 77% 29.91 in 10.0 mi WSW 13.8 mph - N/A   Clear
1:55 PM 57.2 °F - 48.2 °F 72% 29.91 in 10.0 mi WSW 11.5 mph - N/A   Clear
2:15 PM 57.2 °F - 48.2 °F 72% 29.91 in 10.0 mi SW 10.4 mph - N/A   Clear
2:35 PM 57.2 °F - 48.2 °F 72% 29.91 in 10.0 mi SW 11.5 mph - N/A   Clear
2:55 PM 55.4 °F - 48.2 °F 77% 29.91 in 10.0 mi SW 9.2 mph - N/A   Clear
3:15 PM 55.4 °F - 48.2 °F 77% 29.92 in 10.0 mi SW 9.2 mph - N/A   Clear
3:35 PM 55.4 °F - 48.2 °F 77% 29.92 in 10.0 mi WSW 8.1 mph - N/A   Clear
3:55 PM 55.4 °F - 48.2 °F 77% 29.92 in 10.0 mi WSW 6.9 mph - N/A   Clear
4:15 PM 55.4 °F - 48.2 °F 77% 29.93 in 10.0 mi SW 6.9 mph - N/A   Clear
4:35 PM 53.6 °F - 46.4 °F 77% 29.95 in 10.0 mi SW 6.9 mph - N/A   Clear
4:54 PM 53.6 °F - 46.4 °F 77% 29.93 in 10.0 mi SW 3.5 mph - N/A   Clear
5:15 PM 53.6 °F - 46.4 °F 77% 29.93 in 10.0 mi Calm Calm - N/A   Clear
5:35 PM 53.6 °F - 46.4 °F 77% 29.91 in 10.0 mi Calm Calm - N/A   Clear
5:54 PM 51.8 °F - 46.4 °F 82% 29.91 in 10.0 mi Calm Calm - N/A   Clear
6:15 PM 50.0 °F - 46.4 °F 87% 29.92 in 10.0 mi Calm Calm - N/A   Clear
6:35 PM 50.0 °F - 46.4 °F 87% 29.93 in 10.0 mi Calm Calm - N/A   Clear
6:54 PM 48.2 °F - 46.4 °F 93% 29.93 in 10.0 mi Calm Calm - N/A   Clear
7:15 PM 48.2 °F - 46.4 °F 93% 29.91 in 10.0 mi NW 4.6 mph - N/A   Scattered Clouds
7:35 PM 50.0 °F - 44.6 °F 82% 29.91 in 10.0 mi NNW 6.9 mph - N/A   Clear
8:15 PM 48.2 °F - 44.6 °F 87% 29.89 in 10.0 mi North 4.6 mph - N/A   Clear
8:54 PM 46.4 °F - 42.8 °F 87% 29.90 in 10.0 mi Calm Calm - N/A Rain Light Rain
9:15 PM 46.4 °F 45.2 °F 42.8 °F 87% 29.89 in 7.0 mi North 3.5 mph - N/A Rain Light Rain
9:35 PM 44.6 °F 43.1 °F 42.8 °F 93% 29.88 in 7.0 mi North 3.5 mph - N/A Rain Rain
9:54 PM 44.6 °F 43.1 °F 42.8 °F 93% 29.87 in 5.0 mi NNE 3.5 mph - N/A Rain Rain
10:15 PM 42.8 °F 39.3 °F 39.2 °F 87% 29.84 in 7.0 mi NNE 5.8 mph - N/A Rain Rain
10:35 PM 42.8 °F 37.5 °F 41.0 °F 93% 29.82 in 7.0 mi NE 9.2 mph - N/A Rain Rain
10:55 PM 42.8 °F 38.6 °F 39.2 °F 87% 29.83 in 10.0 mi NE 6.9 mph - N/A Rain Light Rain
11:34 PM 42.8 °F 37.0 °F 39.2 °F 87% 29.81 in 7.0 mi North 10.4 mph 16.1 mph N/A Rain Rain
11:55 PM 41.0 °F 34.7 °F 37.4 °F 87% 29.83 in 4.0 mi North 10.4 mph - N/A Rain Rain